ECMWFFLT2_925_temp_126.txt.gz
Temp
13 13 13 13 13 13 13 13 13 12 12 12 12 12 11 11 11 11 11 11 10 10 10 9 9 9 9 9 9 9 9 9 9 9 8 8 8 7 9 10 10 10 10 10 10 10 10 10 10 11 11 11
13 13 13 13 13 13 13 13 12 12 12 11 11 11 11 11 11 10 10 10 10 10 9 9 9 9 9 9 9 9 9 8 8 8 8 8 7 7 9 9 9 9 10 10 10 10 10 10 10 10 11 11
13 13 13 13 13 13 13 13 12 12 12 11 11 11 11 11 10 10 10 10 10 10 9 9 9 9 9 9 8 8 8 8 8 7 7 7 6 7 8 9 9 9 9 9 9 10 10 10 10 10 10 10
13 13 13 13 13 13 13 13 12 12 12 11 11 11 11 10 10 10 10 10 9 9 9 9 9 9 9 8 8 8 8 8 7 7 7 6 6 8 8 8 9 9 9 9 9 9 9 9 9 10 10 10
13 13 13 13 13 13 13 12 12 12 11 11 11 11 10 10 10 10 10 9 9 9 9 8 8 8 8 8 8 7 7 7 7 6 6 6 7 8 8 8 8 8 8 8 8 9 9 9 9 9 9 9
13 13 13 13 13 12 12 12 12 11 11 11 11 10 10 10 10 10 9 9 9 9 9 8 8 8 8 8 7 7 6 6 6 5 6 7 7 8 8 8 8 8 8 8 8 8 8 8 9 9 9 9
13 12 12 12 12 12 12 12 11 11 11 11 11 10 10 10 10 10 10 9 9 9 8 8 8 7 8 8 7 6 6 5 5 5 6 7 7 7 7 7 7 8 8 8 8 8 8 8 8 8 8 8
12 12 12 12 12 12 12 11 11 11 11 11 11 11 10 10 10 10 10 9 9 9 8 8 8 7 7 7 6 6 6 5 5 6 7 7 7 7 7 7 7 7 7 7 7 7 7 7 8 8 8 8
12 12 12 12 12 12 12 11 11 11 11 11 11 10 10 10 10 10 9 9 8 8 8 8 8 7 7 7 6 6 6 6 6 7 7 7 7 7 7 7 7 7 7 7 7 7 7 7 7 7 7 8
12 12 12 12 12 12 11 11 11 11 11 11 10 10 10 10 10 9 9 9 8 8 8 8 7 7 7 7 7 6 6 6 6 6 6 6 6 6 6 6 6 6 6 6 6 6 6 6 6 7 7 7
12 12 12 12 12 12 11 11 11 11 11 11 10 10 10 10 9 9 9 9 8 8 8 8 7 7 7 7 6 6 6 6 6 6 6 6 6 6 6 6 6 6 6 6 6 6 6 6 6 6 6 6
12 12 12 12 11 11 11 11 11 11 11 11 10 10 10 10 9 9 9 9 8 8 8 8 7 7 7 6 6 6 6 7 6 6 6 6 6 6 6 6 6 5 6 6 5 6 6 6 6 6 6 6
12 12 12 12 11 11 11 11 11 11 11 11 10 10 10 10 10 9 9 9 8 8 8 8 7 7 7 7 6 6 6 6 6 6 6 6 6 6 6 5 5 5 5 5 5 5 5 5 5 5 6 6
11 11 11 11 11 11 11 11 11 11 11 11 10 10 10 10 10 9 9 9 9 8 8 8 7 7 6 6 6 6 6 6 6 6 6 6 6 5 5 5 5 5 5 5 5 5 5 5 5 5 5 5
11 11 11 11 11 11 11 11 11 11 11 11 11 10 10 10 9 9 9 9 8 8 8 8 7 7 6 6 6 6 6 6 6 6 6 6 5 5 5 5 5 5 5 5 5 5 5 4 5 5 5 5
11 11 11 11 11 11 11 11 11 11 11 11 10 11 10 10 9 9 9 9 8 8 8 7 7 7 6 6 6 6 6 6 6 6 6 5 5 5 5 5 5 5 4 4 4 4 4 4 4 4 4 4
11 11 11 11 11 11 11 11 11 11 10 10 10 10 10 10 10 9 9 9 8 8 8 8 7 7 6 6 6 6 6 6 6 6 6 5 5 5 5 5 5 4 4 4 4 4 4 4 4 4 4 4
10 11 11 11 11 11 11 11 10 11 10 10 10 10 10 10 10 9 9 9 8 8 8 8 7 7 6 6 6 6 6 6 6 5 5 5 5 4 4 4 4 4 4 4 4 4 4 4 4 4 3 3
10 10 11 11 11 11 11 11 10 10 10 10 10 10 10 10 9 9 9 9 8 8 8 8 7 7 6 6 6 6 5 5 5 5 5 5 4 4 4 4 4 4 3 4 4 4 4 3 4 3 3 3
10 10 10 10 10 10 10 10 10 10 10 10 10 10 9 9 9 9 9 9 9 8 8 8 7 7 7 6 6 5 5 5 5 5 5 5 4 4 4 4 4 4 3 3 4 4 3 3 3 3 3 3
9 9 9 9 9 9 10 10 10 10 10 10 10 9 9 9 9 9 9 9 8 8 8 8 7 7 7 6 6 5 5 5 5 5 5 4 4 3 3 3 3 3 3 3 3 3 3 3 3 3 3 3
8 8 8 9 9 9 9 9 9 10 9 9 9 9 9 9 9 9 9 9 8 8 8 7 7 7 7 6 6 5 5 5 5 5 4 4 4 3 3 3 3 2 2 2 3 3 3 3 3 3 2 2
8 8 8 8 8 7 7 7 8 8 8 8 9 9 9 9 9 8 8 8 8 8 7 7 7 7 7 6 6 5 5 5 4 4 4 4 4 4 3 2 2 2 2 2 2 2 2 2 2 2 2 3
8 7 7 7 6 6 6 6 7 7 7 7 8 9 9 8 8 8 8 8 8 7 7 7 7 7 6 6 6 5 5 5 5 5 4 4 3 3 3 2 2 2 1 1 1 1 1 1 2 2 2 2
8 7 7 6 6 6 5 6 5 5 5 6 7 8 8 8 8 8 8 8 8 7 7 7 7 6 6 6 6 6 5 5 5 5 4 4 3 3 2 2 1 2 1 1 2 1 1 1 1 1 1 1
8 7 7 7 6 6 5 6 5 5 6 7 7 8 7 7 7 7 7 7 7 7 7 6 7 6 6 6 6 6 5 5 5 4 4 4 3 2 2 1 2 2 1 2 3 4 3 2 1 1 1 1
7 7 7 7 7 6 6 6 6 6 7 7 7 7 6 6 6 7 7 7 7 7 6 6 7 6 6 6 6 5 5 4 4 4 4 4 3 2 1 1 1 2 2 3 4 5 5 5 5 3 1 1
7 7 7 7 6 6 6 6 5 5 5 5 5 5 5 4 5 5 5 6 6 7 6 6 6 6 6 6 6 6 5 4 4 4 4 4 3 2 2 2 1 1 2 3 4 5 5 6 6 5 5 4
7 7 6 6 6 6 5 5 5 4 4 3 3 4 4 4 5 5 5 5 6 6 6 6 6 6 6 6 6 6 5 5 5 5 4 4 4 3 3 3 2 1 2 2 4 5 6 5 5 6 7 6
7 7 6 6 6 5 5 5 4 4 4 4 4 4 4 5 5 5 5 5 6 5 6 6 5 5 5 6 6 5 5 5 5 4 4 5 4 3 3 4 3 2 1 2 2 3 5 5 5 6 7 7
7 7 6 6 6 5 5 5 5 4 4 4 4 4 4 4 4 4 4 5 5 5 5 5 5 5 5 5 5 5 5 5 5 5 5 5 4 4 3 4 4 3 2 1 1 2 3 3 4 5 5 6

ECMWFFLT2_925_temp_132.txt.gz
Temp
14 14 14 14 14 14 14 13 13 13 13 12 12 12 12 12 11 11 11 11 11 11 11 11 11 11 11 11 11 10 11 10 10 10 10 9 9 9 9 8 9 11 11 11 12 12 12 12 12 12 12 12
14 14 14 14 14 14 13 13 13 13 13 12 12 12 12 12 11 11 11 11 11 11 10 10 10 11 11 10 10 10 10 10 10 10 9 8 8 8 8 8 10 11 11 11 11 12 12 12 12 11 12 12
14 13 13 13 13 13 13 13 13 13 13 12 12 12 12 12 11 11 11 11 10 10 10 10 10 10 10 10 10 10 10 10 9 9 8 8 7 7 8 9 10 10 11 11 11 11 11 11 11 11 11 12
13 13 13 13 13 13 13 13 13 12 12 12 12 12 11 11 11 11 11 10 10 10 10 10 10 10 10 10 10 10 10 9 9 9 8 7 7 8 9 10 10 10 10 10 11 11 11 11 11 11 11 11
13 13 13 13 13 13 13 13 13 12 12 12 12 12 11 11 11 11 11 10 10 10 10 10 10 10 10 10 10 9 9 9 8 8 7 7 7 8 9 9 10 10 10 10 10 10 10 10 10 11 11 11
13 13 13 13 12 12 13 13 13 12 12 12 12 11 11 11 11 11 10 10 10 10 10 10 10 10 10 10 9 9 9 8 8 8 7 7 8 8 9 9 9 9 10 10 10 10 10 10 10 10 10 11
13 13 12 12 12 12 12 12 12 12 12 12 12 11 11 11 11 11 10 10 10 10 10 9 9 9 9 9 9 8 8 8 8 7 7 8 8 8 9 9 9 9 9 9 9 9 9 10 10 10 10 10
12 12 12 12 12 12 12 12 12 12 12 12 11 11 11 11 10 10 10 10 10 9 9 9 9 9 9 9 8 8 8 8 7 7 7 8 8 8 8 9 9 9 9 9 9 9 9 9 9 9 9 10
12 12 12 12 12 12 12 12 12 12 11 11 11 11 11 10 10 10 10 10 9 9 9 9 9 9 9 8 8 8 8 8 7 7 7 7 7 8 8 8 8 8 8 9 8 8 9 9 9 9 9 9
12 12 12 12 11 11 12 12 11 11 11 11 11 10 10 10 10 10 10 10 10 9 9 9 9 9 8 8 8 8 8 8 7 7 7 7 7 7 7 7 8 8 8 8 8 8 8 8 8 8 9 9
12 12 12 11 11 11 11 11 11 11 10 10 10 10 10 10 10 10 10 10 10 9 9 9 9 9 8 8 8 8 8 8 7 7 7 7 6 6 6 7 7 7 7 7 7 8 8 8 8 8 8 9
12 12 12 11 11 11 11 11 10 11 11 11 10 10 10 10 10 10 10 10 10 9 9 9 9 9 8 8 8 8 8 8 7 7 7 7 6 6 7 7 7 7 7 7 7 7 8 7 7 8 8 8
12 12 12 11 11 11 11 11 11 11 11 11 10 10 9 10 10 10 10 10 9 9 9 9 9 8 8 8 8 7 7 7 7 7 7 6 6 6 7 7 7 7 7 6 7 7 7 7 7 7 7 8
12 12 12 11 12 12 12 12 12 11 11 11 10 10 10 10 10 11 10 10 9 9 9 9 8 8 8 8 7 7 7 7 7 7 6 6 6 6 6 6 6 6 6 6 6 7 7 7 7 7 7 7
11 12 11 11 12 11 11 11 11 11 11 11 11 10 10 10 10 11 11 10 9 9 9 8 8 8 8 7 7 7 6 6 6 6 6 6 6 6 6 6 6 6 6 6 6 6 6 6 6 6 6 7
11 12 11 11 11 11 10 10 10 11 11 11 11 11 10 10 11 11 11 10 10 9 9 8 8 8 7 7 7 7 6 6 6 6 6 6 6 6 5 5 5 5 5 6 6 6 6 6 6 6 6 6
11 11 11 11 11 11 11 10 10 11 11 11 11 11 10 10 10 11 11 10 10 9 9 8 8 7 7 7 7 7 6 6 6 6 6 6 5 5 5 5 5 5 5 5 5 6 6 5 5 5 5 6
11 11 10 10 11 11 10 10 11 11 11 11 11 11 10 10 10 10 11 10 10 9 9 8 8 8 7 7 7 7 6 6 6 6 6 6 5 5 5 5 5 4 4 4 5 5 5 5 5 5 5 5
11 11 10 10 11 10 10 10 10 10 10 11 11 10 10 10 10 10 11 11 10 9 9 9 8 8 8 7 7 7 6 6 6 6 6 6 5 5 5 4 5 4 4 4 4 4 5 5 5 5 5 5
11 11 11 10 10 10 10 10 9 9 9 10 10 9 9 9 9 9 10 10 10 9 9 9 9 8 8 7 7 7 7 6 6 6 6 6 6 5 5 4 4 4 4 4 4 4 4 4 4 4 4 4
11 11 11 10 10 10 10 9 9 9 9 9 9 9 9 9 9 9 9 10 10 9 9 9 9 8 8 7 7 7 7 6 6 6 6 6 5 5 5 4 4 4 4 4 4 4 4 4 4 4 4 4
12 11 11 10 11 10 10 9 9 9 9 9 9 9 9 9 9 9 9 9 9 9 9 9 9 8 8 8 7 7 7 6 6 6 6 5 5 5 5 4 4 4 4 4 4 4 4 4 4 4 4 4
11 11 11 10 10 10 10 10 9 9 9 9 9 9 9 9 9 8 8 8 8 8 8 8 8 8 8 7 7 7 6 6 6 6 5 5 5 5 5 5 5 5 4 4 4 4 3 3 4 4 4 4
10 10 10 10 10 10 10 10 9 8 8 8 8 8 8 8 8 8 8 8 8 8 8 8 8 8 7 7 7 7 6 6 6 6 6 6 5 5 4 4 5 4 4 4 4 3 3 3 3 3 3 3
9 9 10 9 9 10 10 10 9 8 8 8 8 8 7 7 7 8 8 7 7 7 7 7 7 7 7 7 7 7 7 7 7 7 7 6 5 5 5 4 4 4 4 4 3 3 3 3 3 3 3 3
6 7 8 8 9 10 10 10 9 8 8 8 8 8 7 7 7 7 7 7 7 7 7 7 7 7 7 7 7 7 7 7 6 7 6 6 5 5 5 5 4 4 4 3 3 2 2 2 3 3 3 3
5 5 6 7 8 8 9 9 8 8 8 8 7 7 7 7 7 6 6 6 6 6 6 6 6 6 7 7 6 6 6 6 5 5 5 5 5 5 4 5 4 4 4 4 3 3 3 2 2 2 2 2
3 5 6 6 6 7 7 7 7 7 7 7 7 7 7 7 7 7 6 6 6 6 6 6 6 6 6 6 6 6 6 6 5 5 5 5 5 5 4 4 4 4 4 4 4 3 4 3 3 3 2 1
2 3 4 5 6 6 6 6 7 7 6 6 6 6 6 7 7 7 7 7 6 6 6 6 6 6 5 5 5 5 6 6 6 6 5 4 4 5 4 4 3 3 4 4 5 5 5 4 4 5 3 1
1 2 2 3 3 3 3 4 5 6 6 6 5 5 6 6 6 6 6 6 6 6 6 5 5 5 5 5 5 5 5 5 6 5 5 4 4 4 5 4 3 3 3 4 5 5 6 6 5 6 4 3
0 1 1 1 2 1 2 2 3 4 4 5 5 5 5 4 5 5 5 5 5 5 5 5 4 4 4 4 4 4 4 4 4 5 5 4 4 4 4 4 3 3 3 3 4 5 6 6 6 6 5 4

ECMWFFLT2_925_temp_135.txt.gz
Temp
15 14 14 14 14 14 14 14 13 14 14 13 13 12 13 13 12 12 12 12 12 12 11 11 11 11 11 11 11 11 11 11 10 10 10 10 10 10 9 9 10 11 12 12 12 12 12 12 12 12 12 13
14 14 14 14 14 14 14 14 14 14 13 13 13 12 12 12 12 12 12 12 12 12 11 11 11 11 11 11 11 10 11 11 10 9 10 10 9 9 8 9 10 11 12 12 12 12 12 12 12 12 12 12
14 14 14 14 14 14 14 14 14 13 13 13 13 12 12 12 12 12 12 12 12 11 11 11 11 11 11 11 11 11 10 10 10 9 9 9 8 8 8 9 10 11 11 12 12 12 12 12 12 12 12 12
13 14 14 13 13 14 13 13 13 13 13 13 13 12 12 12 12 12 12 11 11 11 11 11 11 11 11 11 11 11 10 10 9 9 8 8 8 8 9 10 10 11 11 11 12 11 11 12 11 11 11 12
13 13 13 13 13 13 13 13 13 13 13 13 13 12 12 12 12 11 11 11 11 11 11 11 11 11 11 11 11 10 10 9 9 8 8 7 8 9 9 10 10 11 11 11 11 11 11 11 11 11 11 11
13 13 13 13 13 13 13 13 13 13 12 12 12 12 12 11 11 11 11 11 11 11 11 11 11 11 11 11 10 10 10 9 9 8 7 8 9 9 9 10 10 10 11 11 11 11 11 11 11 11 11 11
13 13 13 13 12 12 13 12 12 12 12 12 12 12 11 11 11 11 11 11 11 11 10 10 10 10 10 10 10 9 9 9 8 7 7 8 9 9 10 10 10 10 10 10 11 11 11 11 11 11 11 11
13 13 13 13 12 12 12 12 12 12 12 12 12 12 11 11 11 10 10 10 10 10 10 10 10 10 10 9 9 9 9 8 8 7 7 8 9 9 10 10 10 10 10 10 10 10 10 11 11 10 10 11
13 13 13 12 12 12 12 12 12 12 11 11 11 11 11 11 11 10 10 10 10 10 10 10 10 10 9 9 9 9 8 8 8 8 8 8 8 9 9 9 10 10 10 10 10 10 10 10 10 10 10 11
13 13 13 12 12 12 12 12 12 12 11 11 11 11 11 11 11 10 10 10 10 10 9 10 10 9 9 9 9 8 8 8 8 8 8 8 8 8 9 9 9 9 9 9 10 10 10 10 10 10 10 10
13 13 12 12 12 12 11 11 12 11 11 11 11 11 11 11 11 10 10 10 10 10 9 9 9 9 9 9 9 9 8 8 8 8 8 8 8 8 8 8 8 8 9 9 9 10 10 9 9 9 9 10
12 12 12 12 12 12 11 11 11 11 11 11 11 11 11 11 11 10 10 10 10 10 9 9 9 9 9 9 9 9 8 8 8 7 8 8 8 8 8 8 8 8 8 8 9 9 9 9 9 9 9 9
13 12 12 12 12 11 11 11 11 11 11 11 11 11 11 11 10 10 10 10 10 9 9 9 9 9 9 9 9 9 8 8 8 8 8 8 8 8 8 8 8 8 8 8 9 9 9 9 9 9 9 9
13 12 12 12 11 11 11 11 11 11 11 11 11 11 11 11 10 10 10 10 9 9 9 9 9 9 9 9 9 8 8 8 8 8 8 8 8 8 8 7 7 7 8 8 8 8 8 9 9 9 9 9
13 12 12 12 11 11 11 11 11 11 11 11 12 12 11 11 10 10 10 10 9 9 9 9 9 9 9 8 8 8 8 8 8 8 8 8 8 8 8 7 7 7 7 7 8 8 8 8 8 8 8 8
12 12 12 11 11 10 11 11 11 11 11 11 11 11 11 11 10 10 10 10 9 9 9 9 9 9 8 8 8 8 8 8 8 8 8 8 8 8 8 7 7 7 7 7 7 7 7 7 8 8 8 8
12 12 12 11 11 10 10 10 10 10 10 10 10 10 10 11 10 10 10 10 9 9 9 9 9 9 8 8 8 8 8 8 7 7 7 7 8 7 7 7 7 6 6 7 7 7 7 7 7 7 8 8
12 12 12 12 11 10 10 10 10 10 10 10 9 9 9 10 10 10 10 10 9 9 9 9 9 9 9 8 8 8 7 7 7 7 7 7 7 7 7 6 6 6 6 6 6 6 6 6 7 7 7 7
12 12 12 12 11 11 10 10 10 10 10 9 9 8 8 9 10 10 10 10 9 9 9 8 9 9 9 8 8 8 7 7 7 7 7 7 6 6 6 6 5 5 5 5 6 6 6 6 6 6 7 7
11 12 12 12 12 11 11 10 9 9 9 9 8 8 9 8 8 9 9 9 9 9 9 8 8 9 8 8 8 8 7 7 7 7 6 6 7 6 5 5 5 5 5 5 5 5 5 6 6 6 6 6
9 11 11 12 12 11 11 10 10 9 9 8 8 8 8 8 8 8 8 8 9 9 9 8 8 8 8 8 8 7 7 7 7 7 6 6 6 7 6 5 5 5 5 5 5 5 5 5 5 6 6 6
8 9 10 10 11 11 11 10 10 10 9 8 8 8 8 8 8 8 8 8 8 9 8 8 8 8 8 7 7 7 7 7 6 6 6 6 6 6 6 6 5 5 4 5 5 5 5 5 5 5 6 6
7 7 8 8 9 9 10 10 10 10 9 9 9 9 8 8 7 7 7 7 8 8 8 8 7 7 7 7 7 7 7 6 6 6 6 6 6 5 6 6 6 5 5 5 5 4 4 4 4 5 5 5
5 6 6 6 7 7 8 8 9 9 10 10 10 9 9 8 8 8 7 7 8 7 7 7 7 7 6 6 7 7 6 6 6 6 6 6 6 5 5 6 6 5 5 4 4 4 4 4 4 4 4 4
2 3 3 4 4 5 6 7 7 8 9 9 10 10 9 9 8 8 8 7 7 7 7 7 7 6 6 6 6 6 6 6 6 6 6 6 6 5 5 5 5 5 4 4 3 3 3 3 3 3 3 3
1 1 2 2 3 4 5 5 5 6 7 8 8 9 9 9 8 8 7 7 7 7 7 7 6 6 6 6 6 6 6 6 6 6 6 5 5 5 5 4 4 4 4 3 2 2 2 2 3 3 3 3
-0 0 1 1 2 3 4 4 5 5 5 6 6 7 8 8 8 7 7 7 7 7 6 6 6 6 6 6 5 5 5 5 5 5 5 5 5 5 4 4 4 4 4 3 2 2 2 2 2 2 2 3
-0 0 1 1 2 3 4 4 5 5 4 4 4 5 6 6 6 7 7 7 7 7 6 6 6 6 6 6 6 5 5 5 4 5 5 5 5 5 4 4 4 4 4 4 4 3 2 1 1 3 2 1
-1 -0 1 1 2 2 3 3 3 3 3 3 3 3 4 4 5 5 6 6 7 6 6 6 6 6 6 6 5 5 5 5 5 4 4 4 5 5 4 4 3 4 4 5 5 5 4 2 3 4 2 1
-2 -2 -1 -1 -0 -0 -0 -0 0 0 0 0 1 2 3 3 4 4 5 5 5 5 5 5 6 6 6 5 5 5 5 5 5 4 4 4 4 4 5 4 3 3 3 4 5 6 6 6 5 4 2 2
-2 -2 -2 -2 -2 -2 -2 -2 -1 -1 -1 -1 -0 1 2 2 3 3 4 4 5 5 4 4 5 5 5 5 5 4 4 4 4 5 4 4 4 4 4 4 3 3 3 3 3 5 6 6 6 6 4 3

ECMWFFLT2_925_temp_138.txt.gz
Temp
15 15 14 15 14 14 14 14 14 14 13 13 13 13 12 12 12 12 12 12 12 12 12 12 12 12 12 12 12 12 12 11 11 11 11 11 11 11 10 11 11 12 12 12 12 13 13 13 13 13 13 13
15 14 14 14 14 14 14 14 13 13 13 13 13 13 12 12 12 12 12 12 12 12 12 12 11 11 12 11 12 12 11 11 11 11 11 10 10 10 10 11 11 12 12 12 12 12 13 13 13 13 13 13
14 14 14 14 14 14 13 13 13 13 13 12 13 13 12 12 12 12 12 12 12 12 12 12 11 11 12 11 12 12 11 11 11 11 10 10 10 10 10 10 11 12 12 12 12 12 12 12 13 13 13 13
14 14 14 14 14 14 14 14 13 13 13 12 13 13 13 13 12 12 12 12 12 12 12 12 11 11 12 11 11 11 11 10 11 10 10 10 10 9 10 11 11 12 12 12 12 12 12 12 13 12 13 12
14 14 14 13 13 13 13 13 13 13 13 13 13 13 13 12 12 12 12 12 11 12 12 11 11 11 11 11 11 11 10 10 10 10 9 9 9 9 10 10 11 12 12 12 12 12 12 12 12 12 12 12
14 14 13 13 13 13 13 13 13 13 13 13 13 13 12 12 12 12 12 12 11 12 11 11 11 11 11 11 11 10 10 9 9 9 9 9 9 9 10 10 11 11 12 12 12 12 12 12 12 12 12 12
14 14 13 13 13 13 13 13 12 12 13 13 13 12 12 12 11 12 12 12 11 11 11 11 11 11 11 11 11 10 10 9 9 9 9 9 9 10 10 10 11 11 11 11 12 12 12 12 12 12 12 12
14 13 13 13 13 13 13 12 12 12 12 12 12 12 12 12 12 12 12 12 11 11 11 11 11 11 11 11 11 10 10 9 8 8 9 9 9 10 10 10 10 11 11 11 11 11 11 11 11 11 11 11
14 13 13 13 13 13 13 12 12 12 12 12 12 12 12 11 11 11 11 11 11 11 11 11 11 11 11 11 10 10 9 9 9 9 9 9 9 10 10 10 10 10 11 11 11 11 11 11 11 11 11 11
14 13 13 13 12 13 12 12 12 12 12 12 12 12 12 11 11 11 11 11 11 11 11 11 11 11 11 10 10 10 9 9 10 10 10 10 10 10 10 10 10 10 10 11 11 11 11 11 11 11 11 11
14 14 13 13 12 12 12 12 12 12 12 12 12 12 12 11 11 11 11 11 11 11 11 11 11 10 10 10 10 9 9 9 10 10 10 10 10 10 10 10 10 10 10 10 10 11 10 10 11 11 11 11
14 14 14 13 12 12 12 12 12 11 12 12 12 12 12 12 11 11 11 11 10 10 10 10 10 10 10 10 9 9 9 9 9 9 9 10 10 10 10 10 10 10 10 10 10 10 10 10 10 11 11 11
14 14 13 13 12 11 11 11 11 12 12 12 12 12 11 11 11 11 11 10 10 10 10 10 10 9 9 9 9 9 9 9 9 8 8 9 9 10 10 11 10 10 10 10 10 10 10 10 10 10 11 11
13 13 13 13 12 11 11 11 11 12 12 11 11 11 11 11 12 12 11 11 10 10 10 10 9 9 9 9 9 9 8 9 9 8 8 8 8 9 10 10 10 10 10 10 9 9 9 9 9 10 10 11
13 13 13 12 12 12 11 11 11 11 11 11 11 11 11 11 12 12 11 11 10 10 10 10 9 9 9 9 9 9 9 8 8 8 8 8 8 8 9 9 9 10 10 10 9 9 9 9 9 9 10 10
12 13 13 13 12 11 11 10 10 10 10 10 11 11 11 10 11 11 11 10 10 10 10 10 9 9 9 9 9 9 9 8 8 8 8 8 8 8 8 8 8 9 9 9 9 9 9 9 9 9 9 10
10 11 12 12 12 11 11 10 10 9 9 10 11 11 10 9 10 10 10 10 10 10 10 9 9 9 9 9 9 9 8 8 8 8 8 8 8 8 8 7 7 7 8 8 9 9 9 9 9 9 9 9
9 9 10 11 11 11 11 11 11 10 9 10 10 10 9 10 10 10 10 9 9 9 9 9 9 9 9 9 9 9 8 8 8 8 8 8 8 8 7 7 7 7 7 7 8 8 8 8 9 9 8 9
8 8 8 9 10 10 11 11 11 10 10 9 9 9 9 10 10 9 9 9 9 8 8 8 9 9 9 9 9 8 8 8 8 8 8 8 8 7 7 7 7 7 7 7 7 7 7 7 8 8 8 8
6 7 7 8 8 9 10 10 10 10 10 9 9 8 8 9 9 8 9 9 9 8 8 8 8 8 8 8 8 8 8 8 8 8 7 7 7 7 6 6 6 6 6 7 7 7 7 7 7 7 8 8
6 7 7 7 7 8 8 8 9 9 9 9 9 8 8 9 8 8 8 8 8 8 8 7 7 7 7 8 8 8 8 7 7 7 7 7 7 7 7 6 6 5 6 6 7 7 7 7 7 7 7 7
4 5 6 6 6 7 7 7 7 8 8 8 9 9 9 9 8 7 8 7 7 7 8 7 7 7 7 7 7 7 7 7 7 7 7 7 6 6 6 6 6 5 5 5 6 6 6 6 7 7 7 7
3 4 5 5 6 6 6 6 6 6 6 7 7 7 8 8 8 8 8 7 7 7 7 7 6 6 6 7 7 6 6 6 6 6 6 6 6 6 6 7 7 6 5 5 5 5 5 5 6 6 7 7
1 2 3 3 4 4 4 5 5 5 5 5 5 6 6 7 7 8 8 7 7 7 7 7 7 6 6 6 6 6 6 6 6 6 5 6 6 6 5 6 6 6 5 5 4 4 5 5 5 5 5 6
-1 -1 -0 0 1 1 1 3 4 4 4 4 4 4 5 5 6 6 7 7 8 8 7 7 7 7 7 7 6 6 6 6 6 6 5 5 5 5 5 4 5 5 5 4 3 3 3 4 4 4 4 5
-2 -2 -2 -1 -1 -0 -0 1 2 2 2 3 3 3 4 4 5 5 5 6 7 7 7 7 7 7 6 6 6 6 6 6 5 5 4 4 4 4 4 4 4 4 4 3 2 2 2 2 3 3 3 4
-3 -3 -2 -2 -2 -1 -1 -1 -0 0 1 2 3 3 3 3 3 4 4 4 5 6 6 6 6 6 6 6 6 6 6 5 5 4 4 4 4 4 4 4 4 4 4 3 2 2 2 2 2 2 3 3
-3 -3 -3 -2 -2 -2 -1 -1 -1 -0 1 2 2 2 2 2 2 3 3 3 4 4 5 5 5 5 5 6 6 6 5 5 4 4 4 4 4 4 3 3 3 3 4 4 3 2 2 1 1 3 3 2
-4 -4 -3 -3 -2 -2 -1 -1 -1 -1 -1 -1 -1 -0 0 0 1 1 2 2 2 3 4 4 4 4 4 4 5 5 5 5 5 4 4 4 4 4 3 3 3 3 3 4 4 4 3 2 2 4 3 2
-4 -4 -4 -4 -4 -3 -3 -3 -3 -3 -3 -3 -3 -2 -2 -1 -0 -0 1 1 1 2 2 3 3 4 4 4 4 4 4 4 4 4 4 4 4 4 4 3 3 3 3 3 4 5 5 4 4 4 2 2
-4 -4 -4 -5 -5 -5 -5 -5 -4 -4 -4 -4 -4 -3 -3 -2 -1 -1 -1 -0 0 1 1 1 2 3 3 4 3 3 3 3 3 3 3 3 3 3 3 3 2 2 2 2 3 4 5 5 4 4 4 3

ECMWFFLT2_925_temp_144.txt.gz
Temp
13 14 14 14 15 16 17 16 16 15 15 14 14 14 14 14 13 14 14 14 14 14 14 14 14 14 14 14 14 14 14 13 13 13 13 13 12 12 12 12 12 12 13 13 13 14 14 14 14 14 14 14
13 13 13 14 15 17 17 15 15 14 14 14 14 14 14 14 14 14 14 14 14 14 14 13 13 13 14 14 14 13 13 13 13 13 13 13 12 11 12 13 13 13 13 13 13 14 13 13 14 14 14 14
12 13 13 13 14 16 16 15 15 14 13 13 13 14 14 14 14 14 14 13 13 13 13 13 13 13 13 14 13 13 13 13 13 13 12 12 11 11 12 13 13 13 13 13 13 13 13 14 14 14 14 14
12 13 13 13 13 14 15 15 15 15 14 14 14 14 15 15 14 14 13 13 13 13 12 12 12 13 13 13 13 13 12 12 12 12 12 12 11 11 12 12 12 12 13 13 13 13 13 14 14 14 14 13
12 12 13 13 13 14 15 16 15 15 15 15 14 14 14 14 14 14 13 12 12 12 12 12 12 13 13 13 13 13 12 12 12 13 12 12 12 11 12 12 12 12 12 13 13 13 13 14 14 14 13 13
12 12 12 12 12 13 14 15 15 14 14 14 13 13 13 13 13 13 13 12 12 12 12 12 12 12 12 12 13 12 12 12 12 12 12 11 11 11 12 12 12 12 12 12 13 13 13 13 13 13 13 13
12 12 12 12 12 12 12 13 14 13 13 13 13 13 13 13 12 12 12 12 12 12 12 12 12 12 12 12 12 12 12 12 12 12 12 11 11 11 11 11 11 12 12 12 12 12 13 13 13 13 13 13
11 11 12 12 12 12 12 12 12 12 12 12 12 12 12 12 12 12 12 12 12 12 12 12 12 12 12 12 12 12 12 11 11 12 11 10 10 11 11 11 11 11 12 12 12 12 13 13 13 13 13 13
10 10 11 12 12 12 12 12 12 12 12 12 12 12 12 12 12 12 12 12 12 12 12 12 12 12 12 12 12 12 11 11 11 11 11 10 10 10 10 11 11 11 12 12 12 12 12 12 13 13 12 13
8 9 10 10 11 12 12 12 12 12 11 11 12 12 12 12 12 12 12 12 12 12 12 11 12 11 11 11 11 11 11 11 11 11 10 10 10 10 10 10 11 11 11 12 12 12 12 12 12 12 12 12
7 8 8 9 10 11 11 11 11 11 11 11 11 12 12 12 12 12 11 11 12 11 11 11 11 11 11 11 11 11 11 11 11 11 10 10 10 9 10 10 10 11 11 11 12 12 12 12 12 12 12 12
5 6 6 8 9 9 9 10 11 11 11 11 11 11 11 12 12 12 11 11 11 11 11 11 11 11 11 11 11 11 11 11 11 11 10 10 10 9 9 9 10 10 11 11 11 12 12 12 12 12 12 12
3 4 5 6 7 7 8 9 10 11 11 11 11 11 11 11 11 11 12 12 11 11 11 11 11 11 11 11 11 11 11 11 11 11 10 10 9 9 9 9 9 10 10 11 11 11 11 12 12 12 12 12
2 2 3 4 4 6 7 8 9 9 10 10 10 10 10 10 11 11 11 11 11 11 11 11 11 11 11 11 11 11 11 11 11 11 10 10 9 9 9 9 9 9 10 10 10 11 11 11 12 12 12 12
1 1 2 2 2 4 5 6 7 8 8 9 9 9 10 10 10 10 11 11 11 11 11 11 11 11 10 11 11 11 11 11 11 11 10 10 9 9 9 9 9 9 9 9 10 10 11 11 11 11 11 12
1 0 1 1 1 2 3 5 5 6 6 6 7 8 8 8 9 9 9 10 10 10 11 11 10 11 10 10 10 10 10 10 10 10 10 9 9 8 8 9 9 9 9 9 9 9 10 10 10 11 11 11
1 0 1 1 0 1 2 3 4 4 4 4 5 6 7 7 8 8 8 9 9 10 10 10 10 10 10 10 10 10 10 10 10 10 9 9 9 8 8 9 9 9 9 9 9 9 9 9 10 10 10 10
1 0 0 1 1 1 1 2 2 3 3 3 3 4 5 6 6 7 7 8 8 9 9 10 10 10 9 9 9 9 10 9 9 9 9 9 9 9 9 9 9 9 9 9 9 9 9 9 9 9 10 10
1 0 -0 0 1 1 1 1 1 1 2 3 3 3 3 3 4 5 6 7 7 7 8 8 9 9 9 9 8 8 9 9 9 9 9 9 9 9 8 8 8 8 8 8 8 8 8 9 9 9 9 9
1 1 -0 -0 0 1 2 2 1 0 1 1 2 3 3 2 2 3 4 5 6 6 7 7 7 8 8 9 8 8 8 8 8 8 8 8 8 8 8 8 8 8 8 8 8 8 8 8 8 8 8 9
1 2 1 -0 -0 0 1 1 0 0 0 1 1 1 2 2 2 2 3 4 5 5 6 6 6 7 7 8 8 7 7 7 7 8 8 8 7 8 8 8 8 8 7 7 7 7 8 8 8 8 8 8
1 1 1 0 0 0 1 0 -0 -0 -0 -0 0 0 1 1 2 2 2 2 3 4 4 5 5 6 6 7 7 7 7 7 7 7 7 7 7 7 7 7 7 8 7 7 7 7 7 7 7 7 7 8
-1 0 1 0 1 1 1 0 -1 -1 -1 -1 -1 -0 -0 1 1 1 1 1 2 3 3 3 4 5 5 6 6 6 7 7 7 7 7 7 6 6 6 6 6 7 7 6 6 6 6 6 6 7 7 7
-1 -1 -1 -1 -0 -0 -0 0 -1 -2 -2 -2 -2 -2 -1 -0 0 0 0 1 1 2 2 2 3 3 4 4 5 5 6 6 6 7 7 7 7 6 6 6 6 6 6 6 5 5 5 5 5 6 6 6
-3 -3 -3 -3 -3 -3 -3 -2 -1 -2 -3 -4 -3 -3 -2 -2 -1 -0 0 0 0 1 1 1 1 2 2 3 3 4 5 5 6 6 6 6 6 6 6 5 5 5 6 5 4 4 5 5 5 5 5 5
-4 -4 -4 -4 -4 -4 -4 -4 -3 -3 -3 -4 -4 -3 -2 -2 -2 -1 -1 -1 -1 -0 0 -0 -0 0 1 1 2 2 3 3 4 4 4 4 5 5 5 5 5 5 5 4 3 3 3 4 5 5 5 5
-4 -4 -4 -4 -5 -4 -5 -5 -5 -4 -4 -3 -4 -4 -4 -3 -3 -2 -2 -2 -2 -1 -1 -1 -1 -1 -0 0 1 1 2 2 2 3 3 4 4 4 3 4 4 5 5 3 2 1 2 2 3 4 4 4
-4 -4 -4 -4 -5 -5 -5 -5 -5 -5 -5 -4 -4 -4 -5 -5 -4 -4 -3 -3 -3 -2 -2 -2 -2 -2 -1 -1 -0 -0 -0 1 1 2 2 2 3 3 3 2 2 3 4 4 3 1 0 -0 0 3 3 3
-3 -3 -4 -4 -4 -5 -5 -5 -6 -6 -6 -6 -5 -5 -5 -6 -6 -5 -5 -4 -4 -3 -3 -3 -3 -2 -2 -2 -1 -1 -2 -1 -0 0 1 1 1 2 2 1 1 1 2 3 4 2 1 0 0 1 2 2
-3 -3 -4 -4 -5 -6 -6 -6 -6 -7 -7 -7 -7 -6 -6 -5 -6 -6 -6 -5 -5 -4 -4 -4 -3 -3 -3 -3 -2 -2 -2 -2 -2 -1 -1 -0 0 0 1 1 0 0 0 1 2 3 3 3 2 1 1 1
-3 -4 -4 -4 -5 -6 -6 -7 -7 -7 -7 -7 -7 -7 -6 -6 -6 -6 -6 -6 -6 -5 -5 -5 -4 -4 -3 -3 -3 -3 -2 -3 -3 -3 -2 -1 -1 -0 0 0 0 -0 -0 -1 -0 1 2 2 2 1 0 1